CW3202 Weather Reports


time (UTC)temp
C
wind
direction
speed
KPH
gust
KPH
rain 1hr
cm
rain 24hr
cm
rain mn
cm
humidity
%
barometer
mb
20260507014904 13 360 9.7 12.9 0.00 0.00 0.00 83 1020.8
20260507014304 13 145 4.8 12.9 0.00 0.00 0.00 83 1020.9
20260507013804 13 203 8.0 11.3 0.00 0.00 0.00 83 1020.9
20260507013304 13 190 11.3 11.3 0.00 0.00 0.00 82 1020.8
20260507012804 13 163 11.3 12.9 0.00 0.00 0.00 84 1020.8
20260507012204 13 223 11.3 12.9 0.00 0.00 0.00 83 1020.8
20260507011704 13 223 8.0 11.3 0.00 0.00 0.00 83 1020.9
20260507010505 13 200 11.3 14.5 0.00 0.00 0.00 82 1020.9
20260507010004 13 211 12.9 14.5 0.00 0.00 0.00 81 1020.9
20260507005504 14 179 8.0 11.3 0.00 0.00 0.00 81 1020.9
20260507005004 14 221 3.2 11.3 0.00 0.00 0.00 82 1020.9
20260507004504 14 207 11.3 11.3 0.00 0.00 0.00 81 1020.9
20260507004004 14 153 6.4 12.9 0.00 0.00 0.00 82 1020.9
20260507003504 14 207 9.7 14.5 0.00 0.00 0.00 80 1021.0
20260507003005 14 227 12.9 14.5 0.00 0.00 0.00 81 1020.9
20260507002504 14 184 6.4 16.1 0.00 0.00 0.00 81 1020.9
20260507002004 14 244 8.0 16.1 0.00 0.00 0.00 81 1020.9
20260507001505 14 202 16.1 16.1 0.00 0.00 0.00 81 1020.8
20260507000904 14 216 9.7 9.7 0.00 0.00 0.00 82 1020.9
20260507000405 14 200 4.8 14.5 0.00 0.00 0.00 83 1020.8
20260506235904 14 211 6.4 14.5 0.00 0.00 0.00 81 1020.8
20260506235004 14 360 12.9 14.5 0.00 0.00 0.00 80 1020.8
20260506234504 14 209 9.7 14.5 0.00 0.00 0.00 81 1020.8
20260506233404 15 192 12.9 14.5 0.00 0.00 0.00 81 1020.8
20260506232904 15 360 14.5 14.5 0.00 0.00 0.00 80 1020.8
20260506232404 15 360 6.4 17.7 0.00 0.00 0.00 81 1020.8
20260506231704 15 360 8.0 17.7 0.00 0.00 0.00 80 1020.8
20260506231204 15 360 8.0 14.5 0.00 0.00 0.00 80 1020.7
20260506230705 15 206 9.7 12.9 0.00 0.00 0.00 80 1020.7
20260506230204 15 202 4.8 11.3 0.00 0.00 0.00 80 1020.8
20260506225604 15 221 6.4 8.0 0.00 0.00 0.00 80 1020.8
20260506225104 15 193 4.8 9.7 0.00 0.00 0.00 80 1020.8
20260506224304 16 210 8.0 9.7 0.00 0.00 0.00 80 1020.8
20260506223804 15 154 6.4 9.7 0.00 0.00 0.00 78 1020.9
20260506223104 16 184 4.8 9.7 0.00 0.00 0.00 79 1020.9
20260506222504 16 149 9.7 9.7 0.00 0.00 0.00 78 1020.9
20260506222005 16 190 1.6 6.4 0.00 0.00 0.00 77 1020.9
20260506221505 16 201 6.4 11.3 0.00 0.00 0.00 78 1020.9
20260506221004 16 171 1.6 11.3 0.00 0.00 0.00 77 1020.9
20260506220504 16 203 11.3 11.3 0.00 0.00 0.00 78 1020.9
20260506220005 16 195 8.0 8.0 0.00 0.00 0.00 78 1020.9
20260506215505 16 158 3.2 8.0 0.00 0.00 0.00 78 1020.9
20260506215004 16 187 4.8 8.0 0.00 0.00 0.00 77 1020.9
20260506214505 16 132 3.2 4.8 0.00 0.00 0.00 79 1020.9
20260506214004 16 144 3.2 6.4 0.00 0.00 0.00 77 1020.9
20260506213304 16 176 3.2 6.4 0.00 0.00 0.00 76 1020.9
20260506212704 16 360 1.6 6.4 0.00 0.00 0.00 76 1020.9
20260506212204 16 360 1.6 6.4 0.00 0.00 0.00 78 1020.9
20260506211704 16 360 3.2 8.0 0.00 0.00 0.00 77 1020.9
20260506211004 16 360 4.8 8.0 0.00 0.00 0.00 76 1020.8
20260506210404 16 360 1.6 9.7 0.00 0.00 0.00 80 1020.9
20260506205704 16 159 1.6 9.7 0.00 0.00 0.00 78 1020.8
20260506205204 16 171 6.4 6.4 0.00 0.00 0.00 77 1020.8
20260506204704 16 360 4.8 4.8 0.00 0.00 0.00 78 1020.9
20260506204204 15 182 1.6 9.7 0.00 0.00 0.00 81 1020.8
20260506203704 15 198 1.6 9.7 0.00 0.00 0.00 80 1020.8
20260506203204 15 211 8.0 9.7 0.00 0.00 0.00 79 1020.8
20260506202704 15 173 3.2 9.7 0.00 0.00 0.00 80 1020.7
20260506202004 15 195 9.7 9.7 0.00 0.00 0.00 80 1020.8
20260506201504 15 194 3.2 14.5 0.00 0.00 0.00 80 1020.8
20260506201004 15 215 4.8 14.5 0.00 0.00 0.00 78 1020.8
20260506200404 15 360 9.7 9.7 0.00 0.00 0.00 82 1020.8
20260506195704 15 207 8.0 11.3 0.00 0.00 0.00 81 1020.9
20260506195204 15 206 9.7 11.3 0.00 0.00 0.00 80 1020.9
20260506194704 15 198 8.0 8.0 0.00 0.00 0.00 78 1021.0
20260506194204 15 360 4.8 8.0 0.00 0.00 0.00 77 1020.9
20260506193704 15 360 6.4 9.7 0.00 0.00 0.00 76 1020.9
20260506193204 16 174 3.2 9.7 0.00 0.00 0.00 76 1020.9
20260506192704 16 179 9.7 9.7 0.00 0.00 0.00 74 1020.9
20260506192204 17 161 1.6 8.0 0.00 0.00 0.00 74 1020.9
20260506191704 16 134 1.6 9.7 0.00 0.00 0.00 77 1020.8
20260506191204 16 132 8.0 9.7 0.00 0.00 0.00 79 1020.9
20260506190704 16 157 9.7 9.7 0.00 0.00 0.00 77 1020.9
20260506190204 15 360 4.8 9.7 0.00 0.00 0.00 77 1020.7
20260506185704 15 171 6.4 9.7 0.00 0.00 0.00 78 1020.7
20260506185204 15 146 3.2 6.4 0.00 0.00 0.00 79 1020.8
20260506184704 15 148 1.6 8.0 0.00 0.00 0.00 81 1020.9
20260506184204 15 169 3.2 8.0 0.00 0.00 0.00 80 1020.9
20260506183704 15 175 3.2 8.0 0.00 0.00 0.00 80 1020.9
20260506183204 15 148 6.4 8.0 0.00 0.00 0.00 79 1020.8
20260506182704 15 182 4.8 9.7 0.00 0.00 0.00 82 1020.8
20260506181604 15 360 6.4 9.7 0.00 0.00 0.00 78 1020.7
20260506181104 15 360 6.4 6.4 0.00 0.00 0.00 80 1020.7
20260506180204 15 150 0.0 3.2 0.00 0.00 0.00 81 1020.7
20260506175704 14 149 0.0 8.0 0.00 0.00 0.00 81 1020.6
20260506175204 14 196 3.2 8.0 0.00 0.00 0.00 82 1020.7
20260506174704 14 173 1.6 6.4 0.00 0.00 0.00 83 1020.8
20260506174204 13 360 0.0 6.4 0.00 0.00 0.00 85 1020.8
20260506173604 13 205 3.2 9.7 0.00 0.00 0.00 86 1020.7
20260506173104 13 163 8.0 9.7 0.00 0.00 0.00 85 1020.8
20260506172604 13 207 9.7 9.7 0.00 0.00 0.00 84 1020.7
20260506172104 13 162 3.2 9.7 0.00 0.00 0.00 85 1020.6
20260506171604 13 211 4.8 9.7 0.00 0.00 0.00 84 1020.7
20260506171104 13 151 6.4 8.0 0.00 0.00 0.00 83 1020.5
20260506170604 13 158 0.0 8.0 0.00 0.00 0.00 82 1020.5
20260506170105 13 181 1.6 4.8 0.00 0.00 0.00 83 1020.5
20260506165404 13 360 1.6 6.4 0.00 0.00 0.00 85 1020.5
20260506164304 12 169 1.6 6.4 0.00 0.00 0.00 86 1020.5
20260506163804 12 202 3.2 3.2 0.00 0.00 0.00 86 1020.5
20260506163304 12 206 3.2 3.2 0.00 0.00 0.00 86 1020.3
20260506162804 12 206 3.2 4.8 0.00 0.00 0.00 87 1020.3
20260506162306 12 195 3.2 8.0 0.00 0.00 0.00 86 1020.2
20260506161804 12 360 4.8 8.0 0.00 0.00 0.00 87 1020.3
20260506161304 12 360 4.8 4.8 0.00 0.00 0.00 87 1020.3
20260506160804 12 360 3.2 4.8 0.00 0.00 0.00 87 1020.2
20260506160304 12 360 1.6 3.2 0.00 0.00 0.00 87 1020.4
20260506155604 12 360 0.0 4.8 0.00 0.00 0.00 88 1020.4
20260506155104 12 360 1.6 4.8 0.00 0.00 0.00 88 1020.2
20260506154604 12 360 0.0 8.0 0.00 0.00 0.00 88 1020.2
20260506154104 12 160 1.6 8.0 0.00 0.00 0.00 88 1020.1
20260506153604 12 208 1.6 8.0 0.00 0.00 0.00 88 1020.2
20260506153104 12 185 4.8 4.8 0.00 0.00 0.00 89 1020.2
20260506152604 12 360 0.0 1.6 0.00 0.00 0.00 89 1020.2
20260506151904 11 360 1.6 9.7 0.00 0.00 0.00 89 1020.1
20260506150804 11 360 3.2 9.7 0.00 0.00 0.00 89 1020.1
20260506150305 11 360 3.2 3.2 0.00 0.00 0.00 89 1020.0
20260506145804 11 360 0.0 6.4 0.00 0.00 0.00 89 1019.7
20260506145306 11 360 1.6 6.4 0.00 0.00 0.00 89 1019.7
20260506144804 11 360 6.4 6.4 0.00 0.00 0.00 90 1019.7
20260506144104 11 360 3.2 4.8 0.00 0.00 0.00 91 1019.3
20260506143604 11 360 1.6 4.8 0.00 0.00 0.00 91 1019.4
20260506143104 11 360 1.6 3.2 0.00 0.00 0.00 91 1019.6
20260506142604 11 299 0.0 3.2 0.00 0.00 0.00 91 1019.6
20260506142104 11 270 0.0 3.2 0.00 0.00 0.00 91 1019.9
20260506141604 11 269 0.0 3.2 0.00 0.00 0.00 91 1020.1
20260506141104 11 269 0.0 3.2 0.00 0.00 0.00 91 1019.7
20260506140604 11 360 0.0 1.6 0.00 0.00 0.00 92 1020.0
20260506140104 11 360 0.0 1.6 0.00 0.00 0.00 92 1019.9
20260506135604 11 360 0.0 0.0 0.00 0.00 0.00 92 1020.1
20260506135104 11 360 0.0 0.0 0.00 0.00 0.00 92 1019.9
20260506134604 11 360 0.0 1.6 0.00 0.00 0.00 92 1019.8
20260506134104 11 360 0.0 4.8 0.00 0.00 0.00 91 1019.8
20260506133604 11 360 0.0 4.8 0.00 0.00 0.00 91 1019.8
20260506133104 11 360 4.8 4.8 0.00 0.00 0.00 91 1019.8
20260506132604 11 360 3.2 3.2 0.00 0.00 0.00 91 1019.7
20260506132104 11 360 0.0 1.6 0.00 0.00 0.00 91 1019.5
20260506131504 11 360 0.0 3.2 0.00 0.00 0.00 91 1019.5
20260506131004 11 360 0.0 4.8 0.00 0.00 0.00 91 1019.3
20260506130303 11 360 0.0 4.8 0.00 0.00 0.00 90 1019.4
20260506125604 11 360 3.2 4.8 0.00 0.00 0.00 91 1019.5
20260506125104 11 360 0.0 4.8 0.00 0.00 0.00 91 1019.4
20260506124604 11 360 1.6 4.8 0.00 0.00 0.00 91 1019.3
20260506124104 11 360 1.6 3.2 0.00 0.00 0.00 91 1019.1
20260506123604 11 360 1.6 3.2 0.00 0.00 0.00 91 1019.2
20260506123104 11 360 3.2 6.4 0.00 0.00 0.00 92 1019.1
20260506122604 11 360 3.2 6.4 0.00 0.00 0.00 92 1019.0
20260506122104 11 360 0.0 1.6 0.00 0.00 0.00 92 1019.0
20260506121604 11 360 0.0 1.6 0.00 0.00 0.00 92 1019.1
20260506121104 11 360 0.0 1.6 0.00 0.00 0.00 92 1019.1
20260506120604 11 360 0.0 3.2 0.00 0.00 0.00 92 1019.1
20260506120104 11 360 1.6 3.2 0.00 0.00 0.00 92 1018.9
20260506115604 11 360 0.0 1.6 0.00 0.00 0.00 92 1019.0
20260506115104 11 360 1.6 3.2 0.00 0.00 0.00 91 1018.9
20260506114604 11 360 0.0 3.2 0.00 0.00 0.00 91 1018.8
20260506114005 11 360 3.2 3.2 0.00 0.00 0.00 91 1018.8
20260506113504 11 360 0.0 6.4 0.00 0.00 0.00 91 1018.8
20260506112905 11 360 1.6 6.4 0.00 0.00 0.00 91 1018.7
20260506112404 11 360 4.8 6.4 0.00 0.00 0.00 91 1018.8
20260506111904 11 360 6.4 6.4 0.00 0.00 0.00 91 1018.9
20260506111404 11 360 1.6 6.4 0.00 0.00 0.00 92 1018.9
20260506110904 11 360 3.2 4.8 0.00 0.00 0.00 92 1018.8
20260506110404 11 360 0.0 4.8 0.00 0.00 0.00 91 1018.8
20260506105904 11 360 1.6 4.8 0.00 0.00 0.00 91 1018.7
20260506105404 11 360 4.8 4.8 0.00 0.00 0.00 91 1018.6
20260506104904 11 360 4.8 4.8 0.00 0.00 0.00 91 1018.5
20260506104204 11 360 0.0 4.8 0.00 0.00 0.00 91 1018.5
20260506103704 11 360 3.2 3.2 0.00 0.00 0.00 91 1018.3
20260506103004 11 360 1.6 3.2 0.00 0.00 0.00 91 1018.3
20260506102504 11 360 3.2 8.0 0.00 0.00 0.00 91 1018.3
20260506102004 11 360 0.0 8.0 0.00 0.00 0.00 91 1018.3
20260506101504 11 360 4.8 6.4 0.00 0.00 0.00 91 1018.3
20260506101004 11 360 4.8 6.4 0.00 0.00 0.00 92 1018.3
20260506100104 11 360 3.2 6.4 0.00 0.00 0.00 92 1018.2
20260506095604 11 360 6.4 6.4 0.00 0.00 0.00 92 1018.1
20260506095104 11 360 1.6 6.4 0.00 0.00 0.00 92 1018.1
20260506094604 11 360 3.2 6.4 0.00 0.00 0.00 92 1018.0
20260506094104 11 360 4.8 6.4 0.00 0.00 0.00 93 1018.1
20260506093604 11 360 4.8 6.4 0.00 0.00 0.00 93 1017.9
20260506093009 11 360 4.8 4.8 0.00 0.00 0.00 93 1017.9
20260506092306 11 360 3.2 4.8 0.00 0.00 0.00 94 1017.9
20260506091705 11 360 3.2 4.8 0.00 0.00 0.00 94 1017.8
20260506091204 11 360 1.6 3.2 0.00 0.00 0.00 94 1017.9
20260506090705 11 360 0.0 6.4 0.00 0.00 0.00 94 1017.9
20260506090004 11 360 3.2 6.4 0.00 0.00 0.00 94 1017.8
20260506085306 11 360 6.4 6.4 0.00 0.00 0.00 94 1017.8
20260506084504 11 360 1.6 4.8 0.00 0.00 0.00 94 1017.7
20260506084004 12 360 4.8 4.8 0.00 0.00 0.00 94 1017.7
20260506083504 12 360 1.6 4.8 0.00 0.00 0.00 94 1017.7
20260506083004 12 360 1.6 6.4 0.00 0.00 0.00 93 1017.7
20260506082504 12 360 3.2 6.4 0.00 0.00 0.00 93 1017.7
20260506081904 12 360 1.6 4.8 0.00 0.00 0.00 93 1017.7
20260506081404 12 360 3.2 4.8 0.00 0.00 0.00 93 1017.7
20260506080904 12 360 3.2 4.8 0.00 0.00 0.00 93 1017.5
20260506073304 12 360 3.2 4.8 0.00 0.00 0.00 92 1017.1
20260506072604 12 360 3.2 4.8 0.00 0.00 0.00 92 1017.2
20260506071904 12 360 1.6 1.6 0.00 0.00 0.00 93 1017.3
20260506070904 12 360 1.6 1.6 0.00 0.00 0.00 92 1017.2
20260506070404 12 360 0.0 3.2 0.00 0.00 0.00 93 1017.1
20260506062404 12 360 3.2 4.8 0.00 0.00 0.00 94 1017.0
20260506061904 12 360 0.0 0.0 0.00 0.00 0.00 94 1016.9
20260506061404 12 360 0.0 0.0 0.00 0.00 0.00 94 1017.0
20260506060904 12 360 0.0 0.0 0.00 0.00 0.00 94 1016.9
20260506060404 12 360 0.0 0.0 0.00 0.00 0.00 94 1016.9
20260506051104 11 360 1.6 1.6 0.00 0.00 0.00 93 1016.8
20260506050604 11 360 1.6 1.6 0.00 0.00 0.00 93 1016.9
20260506050104 11 360 1.6 3.2 0.00 0.00 0.00 93 1016.9
20260506044704 11 360 3.2 3.2 0.00 0.00 0.00 92 1016.8
20260506044204 11 360 3.2 3.2 0.00 0.00 0.00 92 1016.7
20260506043704 11 360 3.2 4.8 0.00 0.00 0.00 92 1016.7
20260506043203 11 360 0.0 4.8 0.00 0.00 0.00 91 1016.6
20260506042704 11 360 1.6 4.8 0.00 0.00 0.00 92 1016.5
20260506042204 11 360 3.2 4.8 0.00 0.00 0.00 91 1016.4
20260506041404 12 360 3.2 4.8 0.00 0.00 0.00 92 1016.4
20260506040904 11 360 1.6 3.2 0.00 0.00 0.00 92 1016.3
20260506040404 11 360 1.6 3.2 0.00 0.00 0.00 91 1016.2
20260506035904 11 360 3.2 3.2 0.00 0.00 0.00 90 1015.9
20260506035306 12 360 1.6 3.2 0.00 0.00 0.00 88 1016.0
20260506034804 12 360 0.0 3.2 0.00 0.00 0.00 87 1015.9
20260506034304 13 225 1.6 3.2 0.00 0.00 0.00 86 1015.8
20260506033804 13 360 0.0 1.6 0.00 0.00 0.00 86 1015.8
20260506033304 13 360 0.0 1.6 0.00 0.00 0.00 85 1015.6
20260506032709 13 360 0.0 1.6 0.00 0.00 0.00 85 1015.6
20260506032204 14 226 0.0 1.6 0.00 0.00 0.00 85 1015.5
20260506031704 14 226 1.6 1.6 0.00 0.00 0.00 84 1015.5
20260506031204 15 226 0.0 1.6 0.00 0.00 0.00 83 1015.4
20260506030704 15 360 1.6 3.2 0.00 0.00 0.00 82 1015.2
20260506030204 15 360 1.6 3.2 0.00 0.00 0.00 82 1015.2
20260506025704 15 360 1.6 3.2 0.00 0.00 0.00 81 1015.2
20260506025005 16 360 3.2 3.2 0.00 0.00 0.00 80 1015.1
20260506024504 16 360 3.2 3.2 0.00 0.00 0.00 79 1015.0
20260506024005 16 360 1.6 6.4 0.00 0.00 0.00 80 1015.0
20260506023504 16 236 3.2 6.4 0.00 0.00 0.00 78 1014.9
20260506022904 16 219 4.8 6.4 0.00 0.00 0.00 78 1014.9
20260506022404 16 227 6.4 8.0 0.00 0.00 0.00 78 1014.9
20260506021904 16 214 4.8 8.0 0.00 0.00 0.00 77 1014.9
20260506021104 17 185 8.0 8.0 0.00 0.00 0.00 77 1014.9
20260506020604 17 190 3.2 4.8 0.00 0.00 0.00 77 1014.9
20260506020104 17 217 4.8 6.4 0.00 0.00 0.00 76 1014.9